#timestamp,LO_Frequency,Hit,StdDev 
1617134415.7,286047002.4,N
1617134435.5,286047002.6,N
1617134455.3,286047002.6,N
1617134475.2,286046999.8,N
1617134495.0,286047002.6,N
1617134495.9,286047002.6,N
1617134515.8,286047002.3,N
1617134535.6,286047001.3,N
1617134555.4,286047001.7,N
1617134575.3,286047004.2,N
1617134595.1,286047003.6,N
1617134615.8,286047004.0,N
1617134635.7,286047001.5,N
1617134655.5,286047002.3,N
1617134675.4,286047004.2,N
1617134695.2,286047005.9,N
1617134715.0,286047004.9,N
1617134715.9,286047004.9,N
1617134735.8,286047004.8,N
1617134755.6,286047004.6,N
1617134775.4,286047004.6,N
1617134795.3,286047004.7,N
1617134815.1,286047005.0,N
1617134835.9,286047005.3,N
1617134855.7,286047005.2,N
1617134875.5,286047005.6,N
1617134895.4,286047002.9,N
1617134915.2,286047003.0,N
1617134935.0,286047005.1,N
1617134935.9,286047005.1,Y
1617134955.8,286047002.3,P
1617134975.6,286047001.6,N
1617134995.5,286047001.3,N
1617135015.3,286047002.5,N
1617135035.1,286047002.0,N
1617135055.9,286047002.6,Y
1617135075.7,286047001.1,P
1617135095.6,286046998.2,P
1617135115.4,286047000.3,N
1617135135.2,286046998.1,N
1617135155.1,286047000.5,N
1617135156.0,286047000.5,N
1617135175.8,286047002.7,N
1617135195.6,286047000.3,N
1617135215.5,286047000.8,N
1617135235.3,286047000.6,N
1617135255.2,286047000.9,N
1617135275.9,286046998.5,N
1617135295.7,286047001.1,N
1617135315.6,286047000.5,N
1617135335.4,286046999.7,N
1617135355.2,286047000.7,N
1617135375.1,286047000.8,N
1617135376.0,286047000.8,N
1617135395.8,286047000.3,N
1617135415.7,286047002.1,N
1617135435.5,286047002.1,N
1617135455.3,286047002.1,N
1617135475.2,286047003.6,Y
1617135495.0,286047003.9,P
1617135495.9,286047003.9,N
1617135515.8,286047006.0,P
1617135535.6,286047003.4,N
1617135555.4,286047003.0,N
1617135575.3,286047003.8,N
1617135595.1,286047003.6,N
1617135596.0,286047003.6,N
1617135615.8,286047002.9,N
1617135635.7,286047005.4,Y
1617135655.5,286047002.7,P
1617135675.4,286047002.6,P
1617135695.2,286047002.3,P
1617135715.0,286047001.2,N
1617135715.9,286047001.2,N
1617135735.8,286047002.8,Y
1617135755.6,286046999.6,P
1617135775.4,286046996.9,N
1617135795.3,286046995.2,N
1617135815.1,286046997.7,N
1617135835.9,286046994.9,N
1617135855.7,286046997.4,N
1617135875.5,286046994.9,N
1617135895.4,286046996.0,N
1617135915.2,286046994.0,N
1617135935.0,286046993.9,N
1617135935.9,286046993.9,N
1617135955.8,286046991.7,Y
1617135975.6,286046997.5,P
1617135995.4,286046997.8,P
1617136015.3,286046997.2,P
1617136035.1,286046998.3,Y
1617136055.9,286046999.9,P
1617136075.7,286047000.9,N
1617136095.5,286047000.8,N
1617136115.4,286047000.9,N
1617136135.2,286047002.4,N
1617136155.0,286047002.1,N
1617136156.0,286047002.1,N
1617136175.8,286047001.8,N
1617136195.6,286047000.1,N
1617136215.5,286046999.8,N
1617136235.3,286047002.7,N
1617136255.1,286047002.0,N
1617136275.9,286047002.0,N
1617136295.7,286047002.0,N
1617136315.5,286047001.5,N
1617136335.4,286047001.9,N
1617136355.2,286047002.1,N
1617136375.1,286047002.4,N
1617136376.0,286047002.4,N
1617136395.8,286047004.3,Y
1617136415.6,286047002.2,P
1617136435.5,286047000.2,N
1617136455.3,286047000.7,N
1617136475.1,286047000.2,N
1617136495.9,286047000.2,N
1617136515.7,286047002.6,Y
1617136535.6,286047000.7,P
1617136555.4,286047002.4,P
1617136575.2,286047001.8,N
1617136595.1,286047000.4,N
1617136596.0,286047000.4,N
1617136615.8,286047002.4,Y
1617136635.7,286047002.4,P
1617136655.5,286047000.2,N
1617136675.3,286047001.0,N
1617136695.2,286047000.7,N
1617136715.9,286046999.2,N
1617136735.7,286046997.0,Y
1617136755.6,286046997.3,P
1617136775.4,286046997.9,N
1617136795.2,286046997.3,N
1617136815.1,286046997.1,N
1617136816.0,286046997.1,N
1617136835.8,286046996.7,N
1617136855.7,286046996.6,N
1617136875.5,286046999.4,N
1617136895.3,286046996.6,N
1617136915.2,286046998.3,N
1617136935.0,286046998.8,N
1617136935.9,286046998.8,N
1617136955.7,286046996.8,N
1617136975.6,286046997.0,N
1617136995.4,286046997.6,N
1617137015.3,286046997.9,N
1617137035.1,286046997.5,N
1617137036.0,286046997.5,N
1617137055.8,286046999.6,N
1617137075.7,286046998.9,N
1617137095.5,286046999.6,N
1617137115.3,286046997.4,N
1617137135.2,286046997.1,N
1617137155.0,286046997.1,N
1617137155.9,286046997.1,N
1617137175.8,286046994.9,Y
1617137195.6,286046999.2,P
1617137215.4,286046999.9,N
1617137235.3,286047000.2,N
1617137255.1,286047000.8,N
1617137275.9,286047000.5,N
1617137295.7,286046999.9,N
1617137315.5,286047000.3,N
1617137335.4,286047001.2,N
1617137355.2,286046998.9,N
1617137375.0,286046999.5,N
1617137375.9,286046999.5,N
1617137395.8,286046996.8,Y
1617137415.6,286046997.7,P
1617137435.5,286046996.8,P
1617137455.3,286046995.3,P
1617137475.1,286046996.9,N
1617137495.9,286046996.9,N
1617137515.7,286046999.6,N
1617137535.5,286046999.2,N
1617137555.4,286046997.0,N
1617137575.2,286046997.0,N
1617137595.1,286046997.2,N
1617137596.0,286046997.2,N
1617137615.8,286046999.5,N
1617137635.6,286046997.3,N
1617137655.5,286046996.8,N
1617137675.3,286046996.6,N
1617137695.1,286046997.0,N
1617137715.9,286046997.7,N
1617137735.7,286046996.5,N
1617137755.6,286046997.1,N
1617137775.4,286046996.7,N
1617137795.2,286046997.7,N
1617137815.1,286046997.1,N
1617137816.0,286046997.1,N
1617137835.8,286046999.5,N
1617137855.6,286046999.5,N
1617137875.5,286046996.7,N
1617137895.3,286046996.9,N
1617137915.2,286046996.9,N
1617137935.9,286046997.7,N
1617137955.7,286046997.6,N
1617137975.6,286046995.7,Y
1617137995.4,286046999.6,P
